Flag for Montenegro Weather past 2 weeks in Podgorica, Montenegro

Now
75 °F

Partly sunny.


Feels Like: 78 °F
Forecast: 61 / 74 °F
Wind: 2 mph from North

Location: Podgorica Titograd


UV Index: 0 (Low)

Visibility: N/A


Pressure: 29.83 "Hg

Humidity: 47%

Dew point: 54 °F

Location of PodgoricaLocation

Historic Weather in Podgorica

°F

Podgorica temperature yesterday

Maximum temperature yesterday: 72 °F (at 2:30 PM)
Minimum temperature yesterday: 57 °F (at 12:00 AM)
Average temperature yesterday: 63 °F

Past Weeks' High & Low Weather Summary

 TemperatureHumidityPressure
High75 °F (Apr 8, 3:00 PM)100% (Apr 19, 11:00 PM)30.09 "Hg (Apr 19, 11:00 PM)
Low41 °F (Apr 12, 5:00 AM)21% (Apr 10, 3:30 PM)29.65 "Hg (Apr 18, 6:30 AM)
Average56 °F68%29.89 "Hg
* Reported Apr 8 1:00 PM — Apr 23 1:00 PM, Podgorica, Weather by CustomWeather, © 2014

Note: Actual official high and low records may vary slightly from our data, if they occured in-between our weather recording intervals... More about our weather records

Advertising

Historic Weather Conditions — Data for Previous 24 hours

 ConditionsComfort  
Time TempWeatherWind HumidityBarometerVisibility
1:00 PM
Apr 23
73 °FPartly sunny.6 mph53%29.83 "HgN/A
12:30 PM73 °FPartly sunny.6 mph50%29.83 "HgN/A
12:00 PM70 °FOvercast.3 mph64%29.86 "HgN/A
11:30 AM68 °FOvercast.5 mph64%29.86 "HgN/A
11:00 AM66 °FOvercast.2 mph68%29.89 "HgN/A
10:30 AM64 °FMore clouds than sun.2 mph68%29.89 "HgN/A
10:00 AM63 °FMore clouds than sun.6 mph83%29.89 "HgN/A
9:30 AM63 °FMore clouds than sun.3 mph77%29.89 "HgN/A
9:00 AM64 °FMore clouds than sun.1 mph68%29.89 "HgN/A
8:30 AM63 °FOvercast.2 mph68%29.89 "HgN/A
8:00 AM63 °FOvercast.5 mph68%29.89 "HgN/A
7:30 AM61 °FMore clouds than sun.5 mph72%29.89 "HgN/A
7:00 AM61 °FMore clouds than sun.13 mph77%29.92 "HgN/A
6:30 AM59 °FMostly cloudy.9 mph82%29.92 "HgN/A
6:00 AM59 °FPartly cloudy.2 mph88%29.95 "HgN/A
5:30 AM59 °FPartly cloudy.6 mph88%29.92 "HgN/A
5:00 AM57 °FPartly cloudy.3 mph94%29.92 "HgN/A
4:30 AM59 °FPartly cloudy.2 mph88%29.92 "HgN/A
4:00 AM61 °FPartly cloudy.No wind77%29.92 "HgN/A
3:30 AM59 °FPartly cloudy.1 mph88%29.92 "HgN/A
3:00 AM59 °FPartly cloudy.1 mph88%29.92 "HgN/A
2:30 AM59 °FPartly cloudy.1 mph88%29.92 "HgN/A
2:00 AM61 °FPassing clouds.1 mph83%29.95 "HgN/A
1:30 AM61 °FPassing clouds.2 mph88%29.95 "HgN/A
1:00 AM61 °FPassing clouds.3 mph83%29.95 "HgN/A
12:30 AM63 °FPassing clouds.5 mph77%29.95 "HgN/A
12:00 AM61 °FPassing clouds.1 mph88%29.95 "HgN/A
11:30 PM
Apr 22
61 °FPassing clouds.6 mph88%29.95 "HgN/A
11:00 PM63 °FPassing clouds.8 mph88%29.98 "HgN/A
10:30 PM63 °FPassing clouds.6 mph88%29.98 "HgN/A
10:00 PM63 °FPassing clouds.2 mph88%29.98 "HgN/A
9:30 PM64 °FPassing clouds.5 mph83%29.98 "HgN/A
9:00 PM64 °FPassing clouds.3 mph83%29.98 "HgN/A
8:30 PM64 °FScattered clouds.2 mph83%29.95 "HgN/A
8:00 PM64 °FScattered clouds.1 mph88%29.95 "HgN/A
7:30 PM68 °FScattered clouds.2 mph73%29.95 "HgN/A
7:00 PM68 °FScattered clouds.No wind73%29.95 "HgN/A
6:30 PM70 °FScattered clouds.3 mph69%29.95 "HgN/A
6:00 PM70 °FScattered clouds.6 mph69%29.95 "HgN/A
5:30 PM72 °FPassing clouds.3 mph65%29.95 "HgN/A
5:00 PM72 °FPassing clouds.5 mph65%29.95 "HgN/A
4:30 PM72 °FPassing clouds.5 mph65%29.95 "HgN/A
4:00 PM72 °FPassing clouds.7 mph65%29.92 "HgN/A
3:30 PM72 °FPassing clouds.5 mph65%29.95 "HgN/A
3:00 PM72 °FPassing clouds.9 mph69%29.95 "HgN/A
2:30 PM72 °FScattered clouds.7 mph69%29.95 "HgN/A
2:00 PM70 °FScattered clouds.7 mph69%29.98 "HgN/A
Weather by CustomWeather, © 2014

See weather overview